Regional Weather Roundup
Issued by NWS

Home | Current Version | Previous Version | Graphics & Text | Print | Product List | Glossary On
Versions: 1 2 3 4 5 6 7 8 9 10 11 12 13 14 15 16 17 18 19 20 21 22 23 24 25 26 27 28
000
ASUS45 KBOI 241010
RWRID

IDAHO REGIONAL WEATHER ROUNDUP
NATIONAL WEATHER SERVICE BOISE ID
400 AM MDT SUN SEP 24 2017

NOTE: "FAIR" INDICATES FEW OR NO CLOUDS BELOW 12000 FEET
WITH NO SIGNIFICANT WEATHER AND/OR OBSTRUCTIONS TO VISIBILITY

IDZ012-014-241100-
SOUTHWEST IDAHO


CITY           SKY/WX    TMP DP  RH WIND       PRES   REMARKS
BOISE          CLEAR     40  33  76 CALM      30.02S
CALDWELL       CLEAR     42  36  79 W10       30.04S
MOUNTAIN HOME  CLEAR     41  35  78 W13       30.01F
$$

IDZ016-017-241100-
SOUTHCENTRAL IDAHO


CITY           SKY/WX    TMP DP  RH WIND       PRES   REMARKS
BURLEY         CLOUDY    42  35  76 VRB3      30.00S
JEROME         CLEAR     39  35  86 S5        30.01S
TWIN FALLS     CLEAR     39  32  76 SW8       30.02R WCI  33
$$

IDZ019>023-241100-
SOUTHEAST IDAHO


CITY           SKY/WX    TMP DP  RH WIND       PRES   REMARKS
IDAHO FALLS    CLOUDY    36  31  82 N8        29.99F WCI  30
POCATELLO      CLOUDY    37  33  85 CALM      30.00S
REXBURG        CLOUDY    37  30  75 N5        29.98F WCI  33
$$

IDZ006-010-011-018-031-032-241100-
CENTRAL IDAHO MOUNTAINS


CITY           SKY/WX    TMP DP  RH WIND       PRES   REMARKS
MCCALL         CLEAR     30  27  88 CALM      30.05F
HAILEY         CLEAR     34  28  80 NW7       30.04F WCI  28
STANLEY          N/A     26  23  88 CALM      30.09R
SALMON         CLOUDY    34  30  85 CALM      30.12R
CHALLIS        CLEAR     32  26  78 NW3       30.08R
$$

IDZ002-004-006-007-026-241100-
NORTHERN IDAHO


CITY           SKY/WX    TMP DP  RH WIND       PRES   REMARKS
LEWISTON       CLOUDY    49  42  77 E5        30.11S
LOWELL           N/A     42  39  89 CALM      30.18S
COEUR D`ALENE  CLOUDY    51  44  77 S7        30.11S
MULLAN PASS    CLOUDY    35  33  92 CALM      30.11S
$$




USA.gov is the U.S. government's official web portal to all federal, state and local government web resources and services.